Skip Page Navigation
NASA JPL Caltech
NASA Logo - Jet Propulsion Laboratory + View the NASA Portal
+ Near-Earth Object (NEO) Program
Search JPL
JPL Home Earth Solar System Stars & Galaxies Technology
JPL Solar System Dynamics
BODIES ORBITS EPHEMERIDES TOOLS PHYSICAL DATA DISCOVERY FAQ SITE MAP
JPL Small-Body Database Browser
Search: [ help ]  
11325 Slavicky (1995 SG)
Classification: Main-belt Asteroid          SPK-ID: 2011325
Ephemeris | Orbit Diagram | Orbital Elements | Physical Parameters | Discovery Circumstances | Close-Approach Data ]

[ show orbit diagram ]
Orbital Elements at Epoch 2457000.5 (2014-Dec-09.0) TDB
Reference: JPL 9 (heliocentric ecliptic J2000)
 Element Value Uncertainty (1-sigma)   Units 
e .1354761545124457 4.5682e-08  
a 2.541232545118874 1.6541e-08 AU
q 2.196956132184294 1.1529e-07 AU
i 1.351628567936667 4.9227e-06 deg
node 236.171797549638 0.00029326 deg
peri 166.5030208726969 0.00029478 deg
M 235.875387237743 3.0709e-05 deg
tp 2457510.676494850952
(2016-May-02.17649485)
0.00012867 JED
period 1479.670583127007
4.05
1.4447e-05
3.955e-08
d
yr
n .2432973961266483 2.3754e-09 deg/d
Q 2.885508958053455 1.8782e-08 AU
  Orbit Determination Parameters
   # obs. used (total)      719  
   data-arc span      8289 days (22.69 yr)  
   first obs. used      1991-10-08  
   last obs. used      2014-06-18  
   planetary ephem.      DE431  
   SB-pert. ephem.      SB431-BIG16  
   condition code      0  
   fit RMS      .56007  
   data source      ORB  
   producer      Otto Matic  
   solution date      2014-Oct-09 14:20:19  

Additional Information
 Earth MOID = 1.20527 AU 
 T_jup = 3.432 
[ show covariance matrix ]

Ephemeris | Orbit Diagram | Orbital Elements | Physical Parameters | Discovery Circumstances | Close-Approach Data ]

Physical Parameter Table
Parameter Symbol Value Units Sigma Reference Notes
absolute magnitude H 15.4 mag n/a MPO299045  

11325 Slavický           Discovered 1995 Sept. 17 by L. Šarounová at Ondřejov.
Klement Slavický (1910-1999) was an outstanding Czech composer, whose personal musical expression was rooted in the folk-music culture of Moravia. He was also appreciated for his life-long high moral standards. In 1985 Slavický was awarded with the Golden Medal of the United Nations for his fourth Symphonietta.
NOTE: some special characters may not display properly (any characters within {} are an attempt to place the proper accent above a character)
Reference: 19991123/MPCPages.arcLast Updated: 2010-06-11

[ show close-approach data ]
Ephemeris | Orbit Diagram | Orbital Elements | Physical Parameters | Discovery Circumstances | Close-Approach Data ]
ABOUT SSD CREDITS/AWARDS PRIVACY/COPYRIGHT GLOSSARY LINKS
FirstGov 2014-Oct-21 23:56 UT
(server date/time)  
NASA Home Page
Site Manager:   Donald K. Yeomans
Webmaster  Alan B. Chamberlin